| time (UTC) | temp C | wind direction | speed KPH | gust KPH | rain 1hr cm | rain 24hr cm | rain mn cm | humidity % | barometer mb |
| 20260504050025 | 8 | 251 | 0.0 | 0.0 | 0.00 | 0.00 | 0.00 | 67 | 1015.7 |
| 20260504044525 | 8 | 251 | 0.0 | 4.8 | 0.00 | 0.00 | 0.00 | 66 | 1015.7 |
| 20260504043033 | 8 | 278 | 3.2 | 11.3 | 0.00 | 0.00 | 0.00 | 67 | 1015.7 |
| 20260504041522 | 7 | 229 | 0.0 | 6.4 | 0.00 | 0.00 | 0.00 | 69 | 1015.7 |
| 20260504040023 | 8 | 316 | 0.0 | 3.2 | 0.00 | 0.00 | 0.00 | 69 | 1015.5 |
| 20260504034516 | 8 | 316 | 0.0 | 0.0 | 0.00 | 0.00 | 0.00 | 67 | 1015.4 |
| 20260504033015 | 8 | 316 | 1.6 | 4.8 | 0.00 | 0.00 | 0.00 | 66 | 1015.2 |
| 20260504031514 | 8 | 255 | 1.6 | 3.2 | 0.00 | 0.00 | 0.00 | 63 | 1015.2 |
| 20260504030016 | 9 | 249 | 0.0 | 1.6 | 0.00 | 0.00 | 0.00 | 62 | 1015.1 |
| 20260504024515 | 9 | 248 | 0.0 | 4.8 | 0.00 | 0.00 | 0.00 | 59 | 1015.2 |
| 20260504023016 | 10 | 260 | 0.0 | 3.2 | 0.00 | 0.00 | 0.00 | 58 | 1015.0 |
| 20260504021514 | 10 | 230 | 0.0 | 3.2 | 0.00 | 0.00 | 0.00 | 55 | 1015.1 |
| 20260504020011 | 10 | 230 | 0.0 | 1.6 | 0.00 | 0.00 | 0.00 | 53 | 1015.1 |
| 20260504014511 | 10 | 230 | 1.6 | 6.4 | 0.00 | 0.00 | 0.00 | 50 | 1015.0 |
| 20260504013012 | 11 | 234 | 1.6 | 9.7 | 0.00 | 0.00 | 0.00 | 48 | 1015.0 |
| 20260504011518 | 11 | 269 | 0.0 | 3.2 | 0.00 | 0.00 | 0.00 | 48 | 1014.7 |
| 20260504010009 | 12 | 280 | 0.0 | 0.0 | 0.00 | 0.00 | 0.00 | 47 | 1014.6 |
| 20260504004509 | 13 | 280 | 0.0 | 0.0 | 0.00 | 0.00 | 0.00 | 45 | 1014.5 |
| 20260504003008 | 13 | 280 | 0.0 | 1.6 | 0.00 | 0.00 | 0.00 | 42 | 1014.4 |
| 20260504001507 | 14 | 280 | 0.0 | 3.2 | 0.00 | 0.00 | 0.00 | 41 | 1014.2 |
| 20260504000007 | 15 | 329 | 0.0 | 6.4 | 0.00 | 0.00 | 0.00 | 38 | 1014.2 |
| 20260503234506 | 15 | 305 | 3.2 | 11.3 | 0.00 | 0.00 | 0.00 | 35 | 1013.9 |
| 20260503233005 | 16 | 343 | 3.2 | 12.9 | 0.00 | 0.00 | 0.00 | 34 | 1013.7 |
| 20260503231505 | 16 | 355 | 3.2 | 22.5 | 0.00 | 0.00 | 0.00 | 33 | 1013.7 |
| 20260503230004 | 16 | 302 | 6.4 | 17.7 | 0.00 | 0.00 | 0.00 | 33 | 1013.7 |
| 20260503224504 | 16 | 336 | 9.7 | 25.7 | 0.00 | 0.00 | 0.00 | 32 | 1013.9 |
| 20260503223002 | 16 | 333 | 8.0 | 17.7 | 0.00 | 0.00 | 0.00 | 32 | 1013.7 |
| 20260503221501 | 16 | 331 | 9.7 | 27.4 | 0.00 | 0.00 | 0.00 | 32 | 1013.8 |
| 20260503220001 | 16 | 286 | 6.4 | 17.7 | 0.00 | 0.00 | 0.00 | 32 | 1013.8 |
| 20260503214600 | 16 | 267 | 12.9 | 32.2 | 0.00 | 0.00 | 0.00 | 32 | 1013.6 |
| 20260503213100 | 16 | 328 | 6.4 | 29.0 | 0.00 | 0.00 | 0.00 | 32 | 1013.8 |
| 20260503211557 | 16 | 19 | 4.8 | 17.7 | 0.00 | 0.00 | 0.00 | 32 | 1013.7 |
| 20260503210058 | 16 | 351 | 12.9 | 27.4 | 0.00 | 0.00 | 0.00 | 31 | 1013.8 |
| 20260503204603 | 16 | 333 | 17.7 | 30.6 | 0.00 | 0.00 | 0.00 | 31 | 1013.7 |
| 20260503203057 | 16 | 309 | 12.9 | 27.4 | 0.00 | 0.00 | 0.00 | 33 | 1014.0 |
| 20260503201553 | 15 | 234 | 14.5 | 29.0 | 0.00 | 0.00 | 0.00 | 32 | 1014.1 |
| 20260503200051 | 15 | 236 | 12.9 | 25.7 | 0.00 | 0.00 | 0.00 | 33 | 1014.3 |
| 20260503194550 | 15 | 313 | 11.3 | 29.0 | 0.00 | 0.00 | 0.00 | 34 | 1014.5 |
| 20260503194521 | 15 | 328 | 12.9 | 29.0 | 0.00 | 0.00 | 0.00 | 34 | 1014.5 |
| 20260503193049 | 15 | 319 | 8.0 | 19.3 | 0.00 | 0.00 | 0.00 | 36 | 1014.7 |
| 20260503191548 | 15 | 279 | 16.1 | 29.0 | 0.00 | 0.00 | 0.00 | 35 | 1014.8 |
| 20260503190046 | 15 | 315 | 9.7 | 38.6 | 0.00 | 0.00 | 0.00 | 37 | 1014.9 |
| 20260503184550 | 15 | 295 | 12.9 | 29.0 | 0.00 | 0.00 | 0.00 | 37 | 1015.0 |
| 20260503183044 | 14 | 335 | 9.7 | 22.5 | 0.00 | 0.00 | 0.00 | 36 | 1015.4 |
| 20260503181541 | 13 | 322 | 9.7 | 30.6 | 0.00 | 0.00 | 0.00 | 37 | 1015.4 |
| 20260503180046 | 13 | 355 | 19.3 | 29.0 | 0.00 | 0.00 | 0.00 | 36 | 1015.4 |
| 20260503174542 | 13 | 333 | 11.3 | 24.1 | 0.00 | 0.00 | 0.00 | 37 | 1015.6 |
| 20260503173046 | 13 | 351 | 16.1 | 35.4 | 0.00 | 0.00 | 0.00 | 37 | 1015.6 |
| 20260503171534 | 13 | 335 | 19.3 | 32.2 | 0.00 | 0.00 | 0.00 | 38 | 1015.8 |
| 20260503081512 | 6 | 299 | 9.7 | 17.7 | 0.00 | 0.00 | 0.00 | 68 | 1013.7 |
| 20260503071602 | 6 | 333 | 6.4 | 19.3 | 0.00 | 0.00 | 0.00 | 66 | 1013.1 |
| 20260503060108 | 7 | 323 | 6.4 | 17.7 | 0.00 | 0.00 | 0.00 | 65 | 1013.1 |
| 20260503054546 | 7 | 309 | 6.4 | 14.5 | 0.00 | 0.00 | 0.00 | 65 | 1013.2 |